• In Czech Republic
  • List of Countries
  • For 7 days
  • Water Temperature
  • Satellite Maps
  • Weather Map
  • Weather Widgets
  • user-avatar
    Login

    Hourly Weather Wegielnia

    Today, 20 April, Friday

    Time Temperature Precipitation Wind Pressure Humidity
    00:00 +5°C° 0 mm 3 mps 752 mmHg 82%
    01:00 +5°C° 0 mm 3 mps 752 mmHg 85%
    02:00 +5°C° 0 mm 2 mps 752 mmHg 90%
    03:00 +5°C° 0 mm 2 mps 752 mmHg 90%
    04:00 +4°C° 0 mm 2 mps 752 mmHg 91%
    05:00 +4°C° 0 mm 2 mps 752 mmHg 92%
    06:00 +6°C° 0 mm 2 mps 752 mmHg 85%
    07:00 +7°C° 0 mm 2 mps 752 mmHg 78%
    08:00 +9°C° 0 mm 2 mps 752 mmHg 71%
    09:00 +12°C° 0 mm 2 mps 752 mmHg 64%
    10:00 +13°C° 0 mm 2 mps 752 mmHg 56%
    11:00 +14°C° 0 mm 3 mps 752 mmHg 49%
    12:00 +16°C° 0 mm 3 mps 752 mmHg 48%
    13:00 +17°C° 0 mm 3 mps 751 mmHg 46%
    14:00 +19°C° 0 mm 3 mps 751 mmHg 44%
    15:00 +19°C° 0 mm 3 mps 750 mmHg 46%
    16:00 +19°C° 0 mm 3 mps 750 mmHg 48%
    17:00 +19°C° 0 mm 3 mps 749 mmHg 49%
    18:00 +17°C° 0 mm 3 mps 748 mmHg 56%
    19:00 +14°C° 0 mm 3 mps 748 mmHg 63%
    20:00 +14°C° 0 mm 2 mps 747 mmHg 69%
    21:00 +12°C° 0 mm 3 mps 747 mmHg 69%
    22:00 +12°C° 0 mm 4 mps 746 mmHg 70%
    23:00 +11°C° 0 mm 4 mps 746 mmHg 70%

    Tomorrow, 21 April, Saturday

    Time Temperature Precipitation Wind Pressure Humidity
    00:00 +10°C° 0 mm 5 mps 745 mmHg 68%
    01:00 +10°C° 0 mm 5 mps 744 mmHg 66%
    02:00 +12°C° 0 mm 5 mps 743 mmHg 65%
    03:00 +11°C° 0 mm 6 mps 743 mmHg 65%
    04:00 +10°C° 0 mm 6 mps 742 mmHg 66%
    05:00 +10°C° 0 mm 6 mps 741 mmHg 66%
    06:00 +11°C° 0 mm 6 mps 741 mmHg 69%
    07:00 +12°C° 0 mm 7 mps 740 mmHg 71%
    08:00 +14°C° 0 mm 7 mps 740 mmHg 73%
    09:00 +13°C° 0 mm 8 mps 740 mmHg 68%
    10:00 +15°C° 0 mm 8 mps 740 mmHg 63%
    11:00 +15°C° 0 mm 8 mps 741 mmHg 57%
    12:00 +15°C° 0 mm 8 mps 741 mmHg 53%
    13:00 +15°C° 0 mm 8 mps 741 mmHg 49%
    14:00 +15°C° 0 mm 8 mps 742 mmHg 44%
    15:00 +15°C° 0 mm 8 mps 742 mmHg 47%
    16:00 +14°C° 0 mm 7 mps 742 mmHg 49%
    17:00 +14°C° 0 mm 7 mps 742 mmHg 52%
    18:00 +11°C° 0 mm 6 mps 742 mmHg 57%
    19:00 +9°C° 0 mm 5 mps 742 mmHg 63%
    20:00 +8°C° 0 mm 5 mps 743 mmHg 69%
    21:00 +7°C° 0 mm 4 mps 743 mmHg 71%
    22:00 +6°C° 0 mm 4 mps 743 mmHg 74%
    23:00 +5°C° 0 mm 4 mps 743 mmHg 76%

    Day after tomorrow, 22 April, Sunday

    Time Temperature Precipitation Wind Pressure Humidity
    00:00 +5°C° 0 mm 4 mps 743 mmHg 78%
    01:00 +5°C° 0 mm 4 mps 743 mmHg 80%
    02:00 +4°C° 0 mm 4 mps 743 mmHg 82%
    03:00 +4°C° 0 mm 4 mps 743 mmHg 83%
    04:00 +4°C° 0 mm 4 mps 743 mmHg 85%
    05:00 +3°C° 0 mm 4 mps 743 mmHg 86%
    06:00 +5°C° 0 mm 4 mps 743 mmHg 81%
    07:00 +6°C° 0 mm 4 mps 743 mmHg 76%
    08:00 +7°C° 0 mm 4 mps 743 mmHg 71%
    09:00 +10°C° 0 mm 4 mps 743 mmHg 63%
    10:00 +12°C° 0 mm 4 mps 743 mmHg 56%
    11:00 +14°C° 0 mm 5 mps 744 mmHg 48%
    12:00 +14°C° 0 mm 5 mps 743 mmHg 47%
    13:00 +15°C° 0 mm 5 mps 743 mmHg 46%
    14:00 +16°C° 0 mm 5 mps 743 mmHg 45%
    15:00 +15°C° 0 mm 5 mps 743 mmHg 46%
    16:00 +15°C° 0 mm 5 mps 743 mmHg 48%
    17:00 +14°C° 0 mm 5 mps 743 mmHg 50%
    18:00 +12°C° 0 mm 4 mps 743 mmHg 57%
    19:00 +11°C° 0 mm 3 mps 743 mmHg 65%
    20:00 +9°C° 0 mm 3 mps 743 mmHg 72%
    21:00 +8°C° 0 mm 3 mps 743 mmHg 75%
    22:00 +7°C° 0 mm 2 mps 743 mmHg 78%
    23:00 +6°C° 0 mm 2 mps 743 mmHg 81%

    23 April, Monday

    Time Temperature Precipitation Wind Pressure Humidity
    00:00 +5°C° 0 mm 2 mps 743 mmHg 81%
    01:00 +6°C° 0 mm 1 mps 743 mmHg 82%
    02:00 +5°C° 0 mm 1 mps 743 mmHg 83%
    03:00 +5°C° 0 mm 1 mps 743 mmHg 83%
    04:00 +5°C° 0 mm 1 mps 743 mmHg 83%
    05:00 +4°C° 0 mm 1 mps 743 mmHg 83%
    06:00 +6°C° 0 mm 1 mps 743 mmHg 77%
    07:00 +8°C° 0 mm 1 mps 743 mmHg 71%
    08:00 +8°C° 0 mm 2 mps 743 mmHg 65%
    09:00 +10°C° 0 mm 2 mps 742 mmHg 59%
    10:00 +12°C° 0 mm 3 mps 742 mmHg 54%
    11:00 +14°C° 0 mm 3 mps 742 mmHg 48%
    12:00 +14°C° 0 mm 3 mps 741 mmHg 47%
    13:00 +15°C° 0 mm 4 mps 741 mmHg 45%
    14:00 +17°C° 0 mm 4 mps 740 mmHg 44%
    15:00 +16°C° 0.5 mm 3 mps 740 mmHg 53%
    16:00 +15°C° 0.5 mm 2 mps 739 mmHg 61%
    17:00 +14°C° 0.5 mm 2 mps 739 mmHg 70%
    18:00 +13°C° 0.5 mm 2 mps 738 mmHg 76%
    19:00 +12°C° 0.5 mm 2 mps 738 mmHg 82%
    20:00 +12°C° 0.5 mm 2 mps 738 mmHg 89%
    21:00 +10°C° 0.1 mm 2 mps 738 mmHg 90%
    22:00 +10°C° 0.1 mm 3 mps 738 mmHg 90%
    23:00 +10°C° 0.1 mm 3 mps 738 mmHg 91%

    24 April, Tuesday

    Time Temperature Precipitation Wind Pressure Humidity
    00:00 +10°C° 0.1 mm 3 mps 738 mmHg 91%
    01:00 +8°C° 0.1 mm 4 mps 738 mmHg 92%
    02:00 +8°C° 0.1 mm 4 mps 738 mmHg 92%
    03:00 +7°C° 0 mm 4 mps 738 mmHg 92%
    04:00 +6°C° 0 mm 4 mps 738 mmHg 93%
    05:00 +5°C° 0 mm 4 mps 739 mmHg 94%
    06:00 +6°C° 0 mm 4 mps 739 mmHg 90%
    07:00 +6°C° 0 mm 5 mps 739 mmHg 87%
    08:00 +7°C° 0 mm 5 mps 740 mmHg 83%
    09:00 +8°C° 0 mm 5 mps 740 mmHg 78%
    10:00 +9°C° 0 mm 6 mps 740 mmHg 72%
    11:00 +10°C° 0 mm 6 mps 740 mmHg 67%
    12:00 +10°C° 0 mm 6 mps 740 mmHg 66%
    13:00 +10°C° 0 mm 6 mps 740 mmHg 65%
    14:00 +10°C° 0 mm 6 mps 740 mmHg 65%
    15:00 +10°C° 0 mm 5 mps 740 mmHg 64%
    16:00 +10°C° 0 mm 5 mps 740 mmHg 64%
    17:00 +10°C° 0 mm 5 mps 740 mmHg 63%
    18:00 +10°C° 0 mm 4 mps 740 mmHg 68%
    19:00 +9°C° 0 mm 3 mps 740 mmHg 73%
    20:00 +8°C° 0 mm 3 mps 740 mmHg 78%
    21:00 +8°C° 0.1 mm 3 mps 739 mmHg 81%
    22:00 +7°C° 0.1 mm 4 mps 739 mmHg 84%
    23:00 +7°C° 0.1 mm 4 mps 739 mmHg 87%

    25 April, Wednesday

    Time Temperature Precipitation Wind Pressure Humidity
    00:00 +7°C° 0.1 mm 5 mps 738 mmHg 88%
    01:00 +8°C° 0.1 mm 5 mps 738 mmHg 89%
    02:00 +8°C° 0.1 mm 5 mps 737 mmHg 90%
    03:00 +8°C° 0 mm 5 mps 737 mmHg 91%
    04:00 +8°C° 0 mm 5 mps 737 mmHg 91%
    05:00 +7°C° 0 mm 5 mps 737 mmHg 92%
    06:00 +8°C° 0.1 mm 5 mps 737 mmHg 90%
    07:00 +8°C° 0.1 mm 5 mps 737 mmHg 88%
    08:00 +9°C° 0.1 mm 5 mps 737 mmHg 86%
    09:00 +9°C° 0.9 mm 5 mps 736 mmHg 87%
    10:00 +10°C° 0.9 mm 4 mps 736 mmHg 89%
    11:00 +10°C° 0.9 mm 4 mps 736 mmHg 90%
    12:00 +10°C° 0.5 mm 4 mps 735 mmHg 89%
    13:00 +10°C° 0.5 mm 4 mps 735 mmHg 89%
    14:00 +11°C° 0.5 mm 4 mps 735 mmHg 89%
    15:00 +10°C° 0.2 mm 4 mps 735 mmHg 87%
    16:00 +10°C° 0.2 mm 4 mps 735 mmHg 86%
    17:00 +9°C° 0.2 mm 5 mps 735 mmHg 85%
    18:00 +8°C° 0.1 mm 4 mps 735 mmHg 86%
    19:00 +7°C° 0.1 mm 4 mps 736 mmHg 87%
    20:00 +7°C° 0.1 mm 3 mps 736 mmHg 88%
    21:00 +5°C° 0 mm 4 mps 736 mmHg 90%
    22:00 +4°C° 0 mm 4 mps 737 mmHg 91%
    23:00 +4°C° 0 mm 4 mps 737 mmHg 93%
    Show more